When you browse on this site, cookies collect data to enhance your experience and personalize the content and advertising you see.
Visit our Privacy Policy to learn more. By continuing to use the site, you agree to this use of cookies and data.
  • In Österreich
  • Länderverzeichnis
  • Für 7 Tage
  • Wassertemperatur
  • Satellitenkarten
  • Wetterkarte
  • News
  • Widgets
  • user-avatar
    Anmelden

    Stündliche Wetter Rohachynka

    Heute, 19 Mai, Sonntag

    Zeit Temperatur Niederschläge Wind Luftdruck Luftfeuchtigkeit
    00:00 +20°C° 0 mm 5 m/S 752 mmHg 74%
    01:00 +20°C° 0 mm 5 m/S 752 mmHg 76%
    02:00 +19°C° 0 mm 4 m/S 752 mmHg 78%
    03:00 +19°C° 0 mm 4 m/S 752 mmHg 79%
    04:00 +18°C° 0 mm 4 m/S 752 mmHg 81%
    05:00 +18°C° 0 mm 4 m/S 753 mmHg 83%
    06:00 +19°C° 0.1 mm 4 m/S 753 mmHg 76%
    07:00 +21°C° 0.1 mm 5 m/S 753 mmHg 70%
    08:00 +22°C° 0 mm 6 m/S 753 mmHg 63%
    09:00 +23°C° 0.7 mm 6 m/S 753 mmHg 60%
    10:00 +26°C° 0.7 mm 5 m/S 753 mmHg 57%
    11:00 +27°C° 0.7 mm 5 m/S 754 mmHg 55%
    12:00 +27°C° 0.3 mm 6 m/S 754 mmHg 53%
    13:00 +28°C° 0.3 mm 6 m/S 754 mmHg 51%
    14:00 +28°C° 0.3 mm 7 m/S 754 mmHg 49%
    15:00 +27°C° 0 mm 7 m/S 754 mmHg 52%
    16:00 +26°C° 0 mm 6 m/S 754 mmHg 56%
    17:00 +26°C° 0 mm 6 m/S 754 mmHg 59%
    18:00 +23°C° 0 mm 5 m/S 754 mmHg 65%
    19:00 +22°C° 0 mm 4 m/S 754 mmHg 71%
    20:00 +20°C° 0 mm 3 m/S 755 mmHg 76%
    21:00 +20°C° 0 mm 3 m/S 755 mmHg 78%
    22:00 +19°C° 0 mm 3 m/S 755 mmHg 80%
    23:00 +19°C° 0 mm 3 m/S 755 mmHg 81%

    Morgen, 20 Mai, Montag

    Zeit Temperatur Niederschläge Wind Luftdruck Luftfeuchtigkeit
    00:00 +19°C° 0 mm 4 m/S 755 mmHg 83%
    01:00 +18°C° 0 mm 4 m/S 756 mmHg 85%
    02:00 +17°C° 0 mm 5 m/S 756 mmHg 87%
    03:00 +17°C° 0 mm 5 m/S 756 mmHg 89%
    04:00 +17°C° 0 mm 5 m/S 756 mmHg 92%
    05:00 +16°C° 0 mm 5 m/S 756 mmHg 94%
    06:00 +17°C° 0 mm 6 m/S 756 mmHg 88%
    07:00 +20°C° 0 mm 6 m/S 757 mmHg 82%
    08:00 +21°C° 0 mm 7 m/S 757 mmHg 76%
    09:00 +22°C° 0 mm 7 m/S 757 mmHg 70%
    10:00 +24°C° 0 mm 7 m/S 757 mmHg 65%
    11:00 +26°C° 0 mm 8 m/S 758 mmHg 59%
    12:00 +26°C° 0 mm 8 m/S 758 mmHg 57%
    13:00 +26°C° 0 mm 7 m/S 758 mmHg 56%
    14:00 +27°C° 0 mm 7 m/S 758 mmHg 55%
    15:00 +26°C° 0 mm 7 m/S 758 mmHg 57%
    16:00 +24°C° 0 mm 7 m/S 758 mmHg 60%
    17:00 +24°C° 0 mm 7 m/S 758 mmHg 62%
    18:00 +22°C° 0 mm 6 m/S 758 mmHg 65%
    19:00 +20°C° 0 mm 6 m/S 758 mmHg 67%
    20:00 +19°C° 0 mm 5 m/S 758 mmHg 70%
    21:00 +19°C° 0 mm 5 m/S 758 mmHg 71%
    22:00 +17°C° 0 mm 5 m/S 758 mmHg 72%
    23:00 +17°C° 0 mm 5 m/S 758 mmHg 73%

    übermorgen, 21 Mai, Dienstag

    Zeit Temperatur Niederschläge Wind Luftdruck Luftfeuchtigkeit
    00:00 +17°C° 0 mm 5 m/S 758 mmHg 76%
    01:00 +16°C° 0 mm 5 m/S 758 mmHg 79%
    02:00 +16°C° 0 mm 5 m/S 758 mmHg 81%
    03:00 +16°C° 0 mm 5 m/S 758 mmHg 83%
    04:00 +16°C° 0 mm 5 m/S 758 mmHg 85%
    05:00 +16°C° 0 mm 5 m/S 758 mmHg 87%
    06:00 +17°C° 0 mm 6 m/S 758 mmHg 82%
    07:00 +20°C° 0 mm 6 m/S 758 mmHg 77%
    08:00 +21°C° 0 mm 6 m/S 758 mmHg 71%
    09:00 +22°C° 0 mm 7 m/S 758 mmHg 67%
    10:00 +23°C° 0 mm 7 m/S 758 mmHg 62%
    11:00 +24°C° 0 mm 7 m/S 758 mmHg 57%
    12:00 +24°C° 0 mm 6 m/S 758 mmHg 58%
    13:00 +24°C° 0 mm 6 m/S 758 mmHg 59%
    14:00 +24°C° 0 mm 6 m/S 758 mmHg 59%
    15:00 +23°C° 0.1 mm 6 m/S 757 mmHg 65%
    16:00 +22°C° 0.1 mm 6 m/S 757 mmHg 70%
    17:00 +21°C° 0.1 mm 6 m/S 757 mmHg 75%
    18:00 +20°C° 0.9 mm 5 m/S 757 mmHg 79%
    19:00 +19°C° 0.9 mm 4 m/S 757 mmHg 82%
    20:00 +18°C° 0.9 mm 4 m/S 757 mmHg 85%
    21:00 +18°C° 0.1 mm 3 m/S 757 mmHg 85%
    22:00 +18°C° 0.1 mm 3 m/S 757 mmHg 84%
    23:00 +18°C° 0.1 mm 3 m/S 757 mmHg 83%

    22 Mai, Mittwoch

    Zeit Temperatur Niederschläge Wind Luftdruck Luftfeuchtigkeit
    00:00 +18°C° 0.8 mm 2 m/S 757 mmHg 86%
    01:00 +17°C° 0.8 mm 2 m/S 756 mmHg 88%
    02:00 +16°C° 0.8 mm 2 m/S 756 mmHg 91%
    03:00 +16°C° 0.2 mm 2 m/S 756 mmHg 90%
    04:00 +16°C° 0.2 mm 2 m/S 756 mmHg 90%
    05:00 +17°C° 0.2 mm 3 m/S 756 mmHg 90%
    06:00 +18°C° 0 mm 3 m/S 756 mmHg 81%
    07:00 +20°C° 0 mm 3 m/S 756 mmHg 73%
    08:00 +22°C° 0 mm 3 m/S 756 mmHg 65%
    09:00 +24°C° 0 mm 3 m/S 755 mmHg 60%
    10:00 +25°C° 0 mm 3 m/S 755 mmHg 55%
    11:00 +26°C° 0 mm 3 m/S 755 mmHg 51%
    12:00 +26°C° 0.4 mm 3 m/S 755 mmHg 51%
    13:00 +26°C° 0.4 mm 4 m/S 755 mmHg 52%
    14:00 +26°C° 0.4 mm 5 m/S 754 mmHg 52%
    15:00 +26°C° 1 mm 5 m/S 754 mmHg 53%
    16:00 +25°C° 1 mm 5 m/S 754 mmHg 54%
    17:00 +23°C° 1 mm 5 m/S 754 mmHg 55%
    18:00 +21°C° 0 mm 5 m/S 754 mmHg 61%
    19:00 +19°C° 0 mm 4 m/S 754 mmHg 67%
    20:00 +17°C° 0 mm 4 m/S 754 mmHg 73%
    21:00 +17°C° 0.1 mm 4 m/S 754 mmHg 76%
    22:00 +15°C° 0.1 mm 4 m/S 754 mmHg 78%
    23:00 +15°C° 0.1 mm 4 m/S 755 mmHg 81%

    23 Mai, Donnerstag

    Zeit Temperatur Niederschläge Wind Luftdruck Luftfeuchtigkeit
    00:00 +16°C° 0 mm 3 m/S 754 mmHg 81%
    01:00 +16°C° 0 mm 3 m/S 754 mmHg 81%
    02:00 +16°C° 0 mm 3 m/S 754 mmHg 81%
    03:00 +16°C° 0 mm 3 m/S 754 mmHg 81%
    04:00 +16°C° 0 mm 2 m/S 754 mmHg 80%
    05:00 +16°C° 0 mm 2 m/S 754 mmHg 80%
    06:00 +18°C° 0 mm 2 m/S 755 mmHg 73%
    07:00 +20°C° 0 mm 3 m/S 755 mmHg 66%
    08:00 +22°C° 0 mm 3 m/S 755 mmHg 59%
    09:00 +23°C° 0 mm 4 m/S 755 mmHg 55%
    10:00 +25°C° 0 mm 4 m/S 755 mmHg 51%
    11:00 +27°C° 0 mm 5 m/S 755 mmHg 47%
    12:00 +27°C° 0 mm 6 m/S 754 mmHg 47%
    13:00 +27°C° 0 mm 6 m/S 754 mmHg 47%
    14:00 +27°C° 0 mm 6 m/S 754 mmHg 47%
    15:00 +26°C° 0 mm 6 m/S 754 mmHg 49%
    16:00 +24°C° 0 mm 6 m/S 754 mmHg 50%
    17:00 +24°C° 0 mm 6 m/S 754 mmHg 52%
    18:00 +22°C° 0 mm 6 m/S 754 mmHg 60%
    19:00 +20°C° 0 mm 5 m/S 754 mmHg 68%
    20:00 +18°C° 0 mm 4 m/S 754 mmHg 76%
    21:00 +17°C° 0 mm 4 m/S 754 mmHg 81%
    22:00 +17°C° 0 mm 3 m/S 754 mmHg 85%
    23:00 +16°C° 0 mm 3 m/S 754 mmHg 89%

    24 Mai, Freitag

    Zeit Temperatur Niederschläge Wind Luftdruck Luftfeuchtigkeit
    00:00 +16°C° 0 mm 3 m/S 754 mmHg 91%
    01:00 +16°C° 0 mm 3 m/S 754 mmHg 92%
    02:00 +15°C° 0 mm 2 m/S 754 mmHg 93%
    03:00 +16°C° 0 mm 2 m/S 754 mmHg 92%
    04:00 +16°C° 0 mm 2 m/S 754 mmHg 92%
    05:00 +16°C° 0 mm 2 m/S 754 mmHg 91%
    06:00 +18°C° 0 mm 3 m/S 754 mmHg 83%
    07:00 +20°C° 0 mm 3 m/S 754 mmHg 75%
    08:00 +22°C° 0 mm 4 m/S 754 mmHg 66%
    09:00 +25°C° 0 mm 4 m/S 754 mmHg 61%
    10:00 +26°C° 0 mm 5 m/S 754 mmHg 55%
    11:00 +27°C° 0 mm 5 m/S 754 mmHg 49%
    12:00 +28°C° 0 mm 5 m/S 753 mmHg 47%
    13:00 +28°C° 0 mm 4 m/S 753 mmHg 44%
    14:00 +28°C° 0 mm 4 m/S 752 mmHg 41%
    15:00 +28°C° 0 mm 4 m/S 752 mmHg 45%
    16:00 +27°C° 0 mm 4 m/S 752 mmHg 49%
    17:00 +26°C° 0 mm 3 m/S 751 mmHg 53%
    18:00 +23°C° 0 mm 4 m/S 751 mmHg 58%
    19:00 +21°C° 0 mm 4 m/S 751 mmHg 62%
    20:00 +20°C° 0 mm 4 m/S 751 mmHg 66%
    21:00 +19°C° 0 mm 4 m/S 751 mmHg 65%
    22:00 +19°C° 0 mm 4 m/S 750 mmHg 64%
    23:00 +19°C° 0 mm 4 m/S 750 mmHg 64%
    Mehr zeigen